Weather in Onezhskiy

Russia / Republic of Karelia     61°59′11″N   35°53′51″E
temp.,
°C
wind,
m/s
gust,
m/s
humid.,
%
clouds,
%
prec.,
mm/h
press.,
hPa
HPBL,
m
7 august, sun
sun700:00+18wsw3997100 3.8 1012433
03:00+15w5994100 5.8 1012451
06:00+14sw4893100 2.1 1013489
09:00+15wsw4883100 2.3 1014764
12:00+17wsw5759100 0.0 10161045
15:00+18wsw4752100 0.0 10161517
18:00+18wsw3756100 0.0 10161359
21:00+15w397097 0.0 1017395
8 august, mon
mon800:00+14wsw397522 0.1 1018310
03:00+12wsw25875 0.1 1019105
06:00+13wsw14825 0.0 102199
09:00+16wsw357085 0.6 1022485
12:00+19sw455397 0.0 10221232
15:00+20wsw365169 0.1 10221377
18:00+18sw245898 0.0 1022746
21:00+13sse119095 0.6 102312
9 august, tue
tue900:00+13wnw1195100 1.0 102445
03:00+13ne1196100 1.4 102445
06:00+13s1297100 1.9 102493
09:00+13se1398100 6.1 1025200
12:00+14sse138998 0.2 1025339
15:00+17sw227147 0.8 1024870
18:00+17sw117270 1.2 1024556
21:00+13nnw11935 1.3 102413
10 august, wed
wed1000:00+11se00956 0.0 102412
03:00+11ne119527 0.0 102412
06:00+12nne11915 0.0 102423
09:00+18ne11675 0.0 1023431
12:00+20w225615 0.1 10231203
15:00+20wsw325539 0.8 1022824
18:00+19sw12542 0.0 1021329
21:00+14sw11766 0.0 102111
11 august, thu
thu1100:00+13ssw228511 0.0 102118
03:00+14w248760 0.0 102189
06:00+14ssw2482100 0.0 1021101
09:00+18sw4768100 0.0 1020488
12:00+20wsw5866100 0.0 1019825
15:00+20sw51064100 0.0 10181037
18:00+20sw51066100 0.0 10161116
21:00+18sw51274100 0.0 1015685